When you browse on this site, cookies collect data to enhance your experience and personalize the content and advertising you see.
Visit our Privacy Policy to learn more. By continuing to use the site, you agree to this use of cookies and data.

Hourly Weather Ituni

Today, 9 August, Sunday

Time Temperature Precipitation Wind Pressure Humidity
00:00 +23°C° 0 mm 0 mps 755 mmHg 97%
01:00 +23°C° 0 mm 0 mps 754 mmHg 97%
02:00 +23°C° 0 mm 0 mps 754 mmHg 98%
03:00 +22°C° 0 mm 0 mps 754 mmHg 98%
04:00 +22°C° 0 mm 0 mps 753 mmHg 98%
05:00 +22°C° 0 mm 0 mps 753 mmHg 98%
06:00 +24°C° 0 mm 0 mps 754 mmHg 94%
07:00 +25°C° 0 mm 0 mps 754 mmHg 90%
08:00 +26°C° 0 mm 0 mps 755 mmHg 84%
09:00 +29°C° 0.2 mm 0 mps 754 mmHg 74%
10:00 +31°C° 0.2 mm 0 mps 754 mmHg 65%
11:00 +34°C° 0.2 mm 0 mps 754 mmHg 55%
12:00 +32°C° 2.5 mm 0 mps 753 mmHg 65%
13:00 +32°C° 2.5 mm 1 mps 752 mmHg 76%
14:00 +30°C° 2.5 mm 1 mps 751 mmHg 87%
15:00 +30°C° 1.7 mm 1 mps 751 mmHg 89%
16:00 +29°C° 1.7 mm 1 mps 751 mmHg 90%
17:00 +29°C° 1.7 mm 1 mps 751 mmHg 92%
18:00 +28°C° 0.5 mm 1 mps 752 mmHg 93%
19:00 +27°C° 0.5 mm 1 mps 752 mmHg 94%
20:00 +26°C° 0.5 mm 1 mps 753 mmHg 95%
21:00 +26°C° 0.3 mm 1 mps 753 mmHg 96%
22:00 +25°C° 0.3 mm 1 mps 753 mmHg 97%
23:00 +23°C° 0.3 mm 0 mps 754 mmHg 97%

Tomorrow, 10 August, Monday

Time Temperature Precipitation Wind Pressure Humidity
00:00 +23°C° 0.1 mm 0 mps 753 mmHg 97%
01:00 +23°C° 0.1 mm 0 mps 753 mmHg 97%
02:00 +23°C° 0.1 mm 0 mps 752 mmHg 98%
03:00 +23°C° 0.1 mm 0 mps 752 mmHg 98%
04:00 +22°C° 0.1 mm 0 mps 752 mmHg 98%
05:00 +22°C° 0.1 mm 0 mps 752 mmHg 98%
06:00 +23°C° 0 mm 0 mps 752 mmHg 94%
07:00 +25°C° 0 mm 0 mps 752 mmHg 91%
08:00 +26°C° 0 mm 0 mps 753 mmHg 87%
09:00 +28°C° 0.4 mm 0 mps 753 mmHg 78%
10:00 +30°C° 0.4 mm 0 mps 753 mmHg 70%
11:00 +32°C° 0.4 mm 0 mps 753 mmHg 61%
12:00 +32°C° 1.7 mm 0 mps 752 mmHg 65%
13:00 +33°C° 1.7 mm 1 mps 751 mmHg 70%
14:00 +33°C° 1.7 mm 1 mps 750 mmHg 74%
15:00 +31°C° 1.6 mm 1 mps 750 mmHg 80%
16:00 +30°C° 1.6 mm 1 mps 750 mmHg 86%
17:00 +29°C° 1.6 mm 1 mps 749 mmHg 92%
18:00 +28°C° 0 mm 1 mps 750 mmHg 94%
19:00 +27°C° 0 mm 1 mps 750 mmHg 95%
20:00 +26°C° 0 mm 1 mps 751 mmHg 96%
21:00 +26°C° 0.2 mm 1 mps 751 mmHg 96%
22:00 +26°C° 0.2 mm 1 mps 751 mmHg 97%
23:00 +26°C° 0.2 mm 1 mps 752 mmHg 97%

Day after tomorrow, 11 August, Tuesday

Time Temperature Precipitation Wind Pressure Humidity
00:00 +25°C° 0.5 mm 1 mps 751 mmHg 98%
01:00 +25°C° 0.5 mm 1 mps 751 mmHg 98%
02:00 +23°C° 0.5 mm 0 mps 750 mmHg 98%
03:00 +23°C° 2.3 mm 0 mps 750 mmHg 98%
04:00 +23°C° 2.3 mm 0 mps 750 mmHg 99%
05:00 +23°C° 2.3 mm 0 mps 750 mmHg 99%
06:00 +23°C° 0.3 mm 0 mps 751 mmHg 97%
07:00 +24°C° 0.3 mm 0 mps 751 mmHg 95%
08:00 +25°C° 0.3 mm 0 mps 752 mmHg 93%
09:00 +27°C° 0.4 mm 0 mps 752 mmHg 85%
10:00 +30°C° 0.4 mm 1 mps 751 mmHg 78%
11:00 +32°C° 0.4 mm 1 mps 751 mmHg 71%
12:00 +32°C° 1.7 mm 1 mps 751 mmHg 73%
13:00 +32°C° 1.7 mm 1 mps 750 mmHg 75%
14:00 +32°C° 1.7 mm 1 mps 749 mmHg 77%
15:00 +31°C° 1.4 mm 1 mps 749 mmHg 82%
16:00 +30°C° 1.4 mm 1 mps 749 mmHg 87%
17:00 +29°C° 1.4 mm 1 mps 748 mmHg 91%
18:00 +28°C° 0.2 mm 1 mps 749 mmHg 93%
19:00 +27°C° 0.2 mm 1 mps 750 mmHg 95%
20:00 +26°C° 0.2 mm 1 mps 750 mmHg 96%
21:00 +26°C° 0.1 mm 1 mps 751 mmHg 97%
22:00 +26°C° 0.1 mm 1 mps 751 mmHg 98%
23:00 +26°C° 0.1 mm 1 mps 751 mmHg 98%

12 August, Wednesday

Time Temperature Precipitation Wind Pressure Humidity
00:00 +26°C° 0 mm 1 mps 751 mmHg 99%
01:00 +25°C° 0 mm 1 mps 750 mmHg 99%
02:00 +25°C° 0 mm 1 mps 750 mmHg 99%
03:00 +25°C° 0.7 mm 1 mps 750 mmHg 99%
04:00 +25°C° 0.7 mm 1 mps 750 mmHg 99%
05:00 +25°C° 0.7 mm 1 mps 750 mmHg 99%
06:00 +26°C° 0.3 mm 1 mps 751 mmHg 96%
07:00 +26°C° 0.3 mm 1 mps 751 mmHg 93%
08:00 +27°C° 0.3 mm 2 mps 752 mmHg 90%
09:00 +29°C° 0 mm 2 mps 752 mmHg 78%
10:00 +31°C° 0 mm 2 mps 752 mmHg 67%
11:00 +35°C° 0 mm 2 mps 752 mmHg 55%
12:00 +35°C° 0.1 mm 2 mps 751 mmHg 53%
13:00 +36°C° 0.1 mm 2 mps 750 mmHg 52%
14:00 +36°C° 0.1 mm 2 mps 749 mmHg 50%
15:00 +35°C° 0.5 mm 2 mps 749 mmHg 60%
16:00 +32°C° 0.5 mm 2 mps 749 mmHg 69%
17:00 +30°C° 0.5 mm 2 mps 748 mmHg 79%
18:00 +29°C° 0.2 mm 2 mps 749 mmHg 82%
19:00 +28°C° 0.2 mm 2 mps 750 mmHg 85%
20:00 +26°C° 0.2 mm 2 mps 750 mmHg 88%
21:00 +26°C° 0 mm 1 mps 750 mmHg 90%
22:00 +26°C° 0 mm 1 mps 751 mmHg 91%
23:00 +25°C° 0 mm 1 mps 751 mmHg 93%

13 August, Thursday

Time Temperature Precipitation Wind Pressure Humidity
00:00 +23°C° 0.1 mm 0 mps 751 mmHg 94%
01:00 +23°C° 0.1 mm 0 mps 750 mmHg 96%
02:00 +22°C° 0.1 mm 0 mps 750 mmHg 98%
03:00 +22°C° 0.1 mm 0 mps 750 mmHg 98%
04:00 +22°C° 0.1 mm 0 mps 750 mmHg 98%
05:00 +22°C° 0.1 mm 0 mps 750 mmHg 99%
06:00 +23°C° 0.2 mm 0 mps 750 mmHg 95%
07:00 +24°C° 0.2 mm 0 mps 751 mmHg 92%
08:00 +26°C° 0.2 mm 0 mps 751 mmHg 89%
09:00 +30°C° 0.1 mm 1 mps 751 mmHg 78%
10:00 +31°C° 0.1 mm 1 mps 751 mmHg 67%
11:00 +33°C° 0.1 mm 1 mps 751 mmHg 56%
12:00 +33°C° 0.6 mm 1 mps 750 mmHg 62%
13:00 +32°C° 0.6 mm 1 mps 749 mmHg 69%
14:00 +32°C° 0.6 mm 1 mps 749 mmHg 75%
15:00 +31°C° 1.4 mm 1 mps 748 mmHg 80%
16:00 +30°C° 1.4 mm 1 mps 748 mmHg 86%
17:00 +29°C° 1.4 mm 1 mps 748 mmHg 91%
18:00 +28°C° 0.4 mm 1 mps 749 mmHg 93%
19:00 +27°C° 0.4 mm 1 mps 749 mmHg 95%
20:00 +26°C° 0.4 mm 1 mps 750 mmHg 97%
21:00 +26°C° 0.2 mm 1 mps 750 mmHg 98%
22:00 +26°C° 0.2 mm 1 mps 750 mmHg 98%
23:00 +25°C° 0.2 mm 1 mps 750 mmHg 98%

14 August, Friday

Time Temperature Precipitation Wind Pressure Humidity
00:00 +23°C° 0.1 mm 0 mps 750 mmHg 98%
01:00 +23°C° 0.1 mm 0 mps 749 mmHg 98%
02:00 +23°C° 0.1 mm 0 mps 749 mmHg 99%
03:00 +23°C° 0 mm 0 mps 749 mmHg 99%
04:00 +23°C° 0 mm 0 mps 749 mmHg 99%
05:00 +23°C° 0 mm 0 mps 749 mmHg 99%
06:00 +24°C° 0.4 mm 0 mps 749 mmHg 96%
07:00 +25°C° 0.4 mm 0 mps 750 mmHg 94%
08:00 +26°C° 0.4 mm 0 mps 751 mmHg 91%
09:00 +29°C° 0.4 mm 1 mps 750 mmHg 84%
10:00 +31°C° 0.4 mm 1 mps 750 mmHg 76%
11:00 +32°C° 0.4 mm 1 mps 750 mmHg 68%
12:00 +32°C° 0.7 mm 1 mps 749 mmHg 71%
13:00 +32°C° 0.7 mm 1 mps 749 mmHg 74%
14:00 +32°C° 0.7 mm 1 mps 748 mmHg 77%
15:00 +32°C° 0.8 mm 1 mps 748 mmHg 80%
16:00 +31°C° 0.8 mm 1 mps 747 mmHg 84%
17:00 +30°C° 0.8 mm 1 mps 747 mmHg 87%
18:00 +29°C° 0.6 mm 1 mps 748 mmHg 90%
19:00 +27°C° 0.6 mm 1 mps 748 mmHg 93%
20:00 +26°C° 0.6 mm 1 mps 749 mmHg 97%
21:00 +26°C° 0.4 mm 1 mps 749 mmHg 97%
22:00 +26°C° 0.4 mm 1 mps 750 mmHg 97%
23:00 +25°C° 0.4 mm 1 mps 750 mmHg 98%
Show more